Austin, MN

7:54 PM CDT on August 29, 2016 (GMT -0500)
Austin Municipal

Weather History for KAUM - December, 2013

Change the Weather History Date:

Wednesday, December 25, 2013

  Actual Average Record
Temperature  
Mean Temperature 20 °F -  
Max Temperature 28 °F 23 °F 39 °F (1999)
Min Temperature 12 °F 11 °F -23 °F (2000)
Degree Days  
Heating Degree Days 45    
Moisture  
Dew Point 15 °F    
Average Humidity 87    
Maximum Humidity 100    
Minimum Humidity 59    
Precipitation  
Precipitation 0.03 in - - ()
Sea Level Pressure  
Sea Level Pressure 30.09 in    
Wind  
Wind Speed 9 mph (West)    
Max Wind Speed 22 mph    
Max Gust Speed 30 mph    
Visibility 7 miles    
Events Snow    
Averages and records for this station are not official NWS values.
T = Trace of Precipitation, MM = Missing Value Source: NWS Daily Summary

Daily Weather History Graph

Daily Weather History Graph

Search for Another Location

Airport or City:

Trip Planner

Search our weather history database for the weather conditions in past years. The results will help you decide how hot, cold, wet, or windy it might be!

Date:

Astronomy

Dec. 25, 2013 Rise Set
Actual Time 7:43 AM CST 4:40 PM CST
Civil Twilight 7:11 AM CST 5:13 PM CST
Nautical Twilight 6:34 AM CST 5:49 PM CST
Astronomical Twilight 5:59 AM CST 6:24 PM CST
Moon 12:01 AM CST (12/25) 11:53 AM CST (12/25)
Length of Visible Light 10h 01m
Length of Day
8h 56m
Waning Gibbous, 48% of the Moon is Illuminated
Dec 25
Waning Gibbous
Jan 1
New
Jan 7
First Quarter
Jan 15
Full
Jan 23
Last Quarter

Hourly Weather History & Observations

Time (CST) Temp. Windchill Dew Point Humidity Pressure Visibility Wind Dir Wind Speed Gust Speed Precip Events Conditions
4:30 AM 12.2 °F 1.7 °F 10.4 °F 92% 30.08 in 7.0 mi SSW 6.9 mph - 0.01 in   Overcast
4:34 AM 12.2 °F 0.7 °F 10.4 °F 92% 30.07 in 7.0 mi SSW 8.1 mph - 0.01 in   Overcast
4:55 AM 12.2 °F 2.9 °F 10.4 °F 92% 30.08 in 5.0 mi SW 5.8 mph - 0.01 in   Overcast
5:14 AM 12.2 °F 2.9 °F 12.2 °F 100% 30.08 in 5.0 mi SW 5.8 mph - N/A   Overcast
5:34 AM 14.0 °F 5.1 °F 12.2 °F 93% 30.08 in 5.0 mi SSW 5.8 mph - N/A   Overcast
5:55 AM 14.0 °F 5.1 °F 12.2 °F 93% 30.08 in 7.0 mi SW 5.8 mph - N/A   Overcast
6:14 AM 15.8 °F 10.2 °F 14.0 °F 93% 30.08 in 7.0 mi SW 3.5 mph - N/A   Overcast
6:34 AM 15.8 °F 10.2 °F 14.0 °F 93% 30.07 in 7.0 mi SSW 3.5 mph - 0.01 in   Overcast
6:55 AM 15.8 °F 7.2 °F 15.8 °F 100% 30.08 in 5.0 mi SW 5.8 mph - 0.01 in   Overcast
7:14 AM 15.8 °F 6.1 °F 15.8 °F 100% 30.08 in 1.8 mi SW 6.9 mph - N/A Snow Light Snow
7:35 AM 17.6 °F 9.3 °F 15.8 °F 93% 30.08 in 2.0 mi SW 5.8 mph - N/A Snow Light Snow
7:54 AM 17.6 °F 8.2 °F 15.8 °F 93% 30.07 in 2.0 mi SSW 6.9 mph - N/A Snow Light Snow
8:14 AM 17.6 °F 8.2 °F 15.8 °F 93% 30.07 in 1.2 mi SSW 6.9 mph - N/A Snow Light Snow
8:35 AM 17.6 °F 8.2 °F 15.8 °F 93% 30.08 in 1.0 mi SW 6.9 mph - N/A Snow Light Snow
8:54 AM 17.6 °F 8.2 °F 15.8 °F 93% 30.07 in 1.0 mi SSW 6.9 mph - N/A Snow Light Snow
9:14 AM 17.6 °F 8.2 °F 17.6 °F 100% 30.08 in 5.0 mi SSW 6.9 mph - N/A   Mostly Cloudy
9:35 AM 19.4 °F 8.6 °F 17.6 °F 93% 30.07 in 5.0 mi SSW 9.2 mph - N/A   Overcast
9:54 AM 19.4 °F 8.6 °F 17.6 °F 93% 30.08 in 5.0 mi SSW 9.2 mph - N/A   Overcast
10:14 AM 19.4 °F 7.2 °F 17.6 °F 93% 30.08 in 1.8 mi SW 11.5 mph - N/A Snow Light Snow
10:34 AM 19.4 °F 7.9 °F 17.6 °F 93% 30.08 in 0.5 mi SW 10.4 mph - N/A Snow Snow
10:54 AM 21.2 °F 9.5 °F 17.6 °F 86% 30.08 in 1.5 mi SW 11.5 mph - 0.01 in Snow Light Snow
11:15 AM 21.2 °F 8.9 °F 19.4 °F 93% 30.07 in 2.5 mi SW 12.7 mph 17.3 mph N/A Snow Light Snow
11:34 AM 21.2 °F 9.5 °F 19.4 °F 93% 30.07 in 5.0 mi SW 11.5 mph - N/A Snow Light Snow
11:54 AM 21.2 °F 10.1 °F 19.4 °F 93% 30.06 in 7.0 mi WSW 10.4 mph - N/A   Overcast
12:15 PM 21.2 °F 10.1 °F 21.2 °F 100% 30.06 in 7.0 mi WSW 10.4 mph - N/A   Overcast
12:35 PM 23.0 °F 13.1 °F 21.2 °F 93% 30.06 in 4.0 mi WSW 9.2 mph - N/A   Overcast
12:54 PM 24.8 °F 15.3 °F 21.2 °F 86% 30.05 in 7.0 mi WSW 9.2 mph - N/A   Overcast
1:15 PM 26.6 °F 17.5 °F 24.8 °F 93% 30.04 in 5.0 mi West 9.2 mph - N/A   Overcast
1:35 PM 26.6 °F 17.5 °F 24.8 °F 93% 30.04 in 5.0 mi WNW 9.2 mph - N/A   Overcast
1:54 PM 26.6 °F 17.5 °F 24.8 °F 93% 30.04 in 7.0 mi WNW 9.2 mph - N/A   Overcast
2:15 PM 26.6 °F 14.7 °F 24.8 °F 93% 30.04 in 7.0 mi WNW 15.0 mph - N/A Snow Light Snow
2:34 PM 28.4 °F 17.5 °F 24.8 °F 86% 30.05 in 7.0 mi WNW 13.8 mph 18.4 mph N/A   Overcast
2:54 PM 26.6 °F 14.3 °F 23.0 °F 86% 30.06 in 10.0 mi WNW 16.1 mph 20.7 mph N/A   Overcast
3:15 PM 24.8 °F 10.7 °F 12.2 °F 59% 30.06 in 10.0 mi NW 19.6 mph 26.5 mph N/A   Scattered Clouds
3:34 PM 21.2 °F 7.3 °F 14.0 °F 74% 30.07 in 10.0 mi WNW 16.1 mph 24.2 mph N/A   Clear
3:54 PM 21.2 °F 6.4 °F 12.2 °F 68% 30.07 in 10.0 mi WNW 18.4 mph 26.5 mph N/A   Clear
4:15 PM 19.4 °F 3.6 °F 10.4 °F 68% 30.08 in 10.0 mi WNW 19.6 mph 24.2 mph N/A   Clear
4:34 PM 17.6 °F 1.7 °F 10.4 °F 73% 30.10 in 10.0 mi WNW 18.4 mph 25.3 mph N/A   Clear
4:54 PM 17.6 °F 0.5 °F 10.4 °F 73% 30.09 in 10.0 mi WNW 21.9 mph 29.9 mph N/A   Clear
5:15 PM 15.8 °F -0.6 °F 10.4 °F 79% 30.10 in 10.0 mi WNW 18.4 mph 24.2 mph N/A   Clear
5:34 PM 15.8 °F 0.9 °F 10.4 °F 79% 30.11 in 10.0 mi WNW 15.0 mph - N/A   Clear
5:54 PM 15.8 °F -0.6 °F 10.4 °F 79% 30.11 in 10.0 mi WNW 18.4 mph 23.0 mph N/A   Clear
6:15 PM 15.8 °F 1.4 °F 10.4 °F 79% 30.12 in 10.0 mi WNW 13.8 mph 23.0 mph N/A   Clear
6:34 PM 15.8 °F -0.2 °F 10.4 °F 79% 30.12 in 10.0 mi WNW 17.3 mph 23.0 mph N/A   Clear
6:54 PM 15.8 °F 0.3 °F 10.4 °F 79% 30.12 in 10.0 mi WNW 16.1 mph 20.7 mph N/A   Clear
7:14 PM 15.8 °F 0.3 °F 10.4 °F 79% 30.12 in 10.0 mi WNW 16.1 mph 20.7 mph N/A   Clear
7:34 PM 14.0 °F -0.8 °F 10.4 °F 86% 30.12 in 10.0 mi WNW 13.8 mph 21.9 mph N/A   Clear
7:54 PM 14.0 °F -0.2 °F 8.6 °F 79% 30.13 in 10.0 mi WNW 12.7 mph - N/A   Clear
8:14 PM 12.2 °F -2.5 °F 8.6 °F 85% 30.13 in 10.0 mi WNW 12.7 mph - N/A   Clear
8:35 PM 12.2 °F -3.1 °F 8.6 °F 85% 30.13 in 10.0 mi WNW 13.8 mph 18.4 mph N/A   Clear
8:54 PM 12.2 °F -1.8 °F 8.6 °F 85% 30.13 in 10.0 mi WNW 11.5 mph - N/A   Clear
9:14 PM 12.2 °F -1.0 °F 10.4 °F 92% 30.13 in 10.0 mi WNW 10.4 mph 17.3 mph N/A   Scattered Clouds
9:35 PM 12.2 °F 1.7 °F 10.4 °F 92% 30.13 in 10.0 mi WNW 6.9 mph - N/A   Mostly Cloudy
9:54 PM 12.2 °F -0.2 °F 10.4 °F 92% 30.12 in 10.0 mi WNW 9.2 mph - N/A   Overcast
10:14 PM 14.0 °F 2.0 °F 10.4 °F 86% 30.12 in 10.0 mi WNW 9.2 mph - N/A   Overcast
10:35 PM 14.0 °F 3.9 °F 10.4 °F 86% 30.12 in 10.0 mi West 6.9 mph - N/A   Overcast
10:54 PM 15.8 °F 6.1 °F 12.2 °F 86% 30.12 in 10.0 mi West 6.9 mph - N/A   Overcast
11:14 PM 15.8 °F 7.2 °F 12.2 °F 86% 30.12 in 10.0 mi West 5.8 mph - N/A   Overcast
11:35 PM 17.6 °F 8.2 °F 12.2 °F 79% 30.12 in 10.0 mi West 6.9 mph - N/A   Overcast
11:54 PM 17.6 °F 10.7 °F 14.0 °F 86% 30.12 in 10.0 mi West 4.6 mph - N/A   Overcast